This is the latest recevied weather packets stored in our database for station/object DW9280. If no packets are shown the sender has not sent any weather packets the latest 10 day(s).
| Time | Temp. | Humidity | Pressure | Rain* | Wind** | Luminosity | Snow |
|---|---|---|---|---|---|---|---|
| 1787408550 | 19.44° C | 69% | 1020.7 hPa | 0 mm | - | 469 W/m² | - |
| 1787408247 | 19.44° C | 70% | 1020.5 hPa | 0 mm | - | 608 W/m² | - |
| 1787408069 | 19.44° C | 67% | 1020.5 hPa | 0 mm | - | 399 W/m² | - |
| 1787407646 | 18.89° C | 67% | 1020.5 hPa | 0 mm | - | 621 W/m² | - |
| 1787407343 | 18.89° C | 66% | 1020.5 hPa | 0 mm | - | 206 W/m² | - |
| 1787407167 | 18.89° C | 68% | 1020.4 hPa | 0 mm | - | 216 W/m² | - |
| 1787406739 | 18.89° C | 67% | 1020.3 hPa | 0 mm | - | 220 W/m² | - |
| 1787406439 | 18.89° C | 66% | 1020.3 hPa | 0 mm | - | 142 W/m² | - |
| 1787406133 | 19.44° C | 66% | 1020.3 hPa | 0 mm | - | 262 W/m² | - |
| 1787405832 | 20° C | 66% | 1020.2 hPa | 0 mm | - | 223 W/m² | - |
| 1787405533 | 18.89° C | 68% | 1020.2 hPa | 0 mm | - | 858 W/m² | - |
| 1787405229 | 18.89° C | 67% | 1020.2 hPa | 0 mm | - | 250 W/m² | - |
| 1787405054 | 18.89° C | 67% | 1020.1 hPa | 0 mm | - | 232 W/m² | - |
| 1787404628 | 18.89° C | 69% | 1020.1 hPa | 0 mm | - | 271 W/m² | - |
| 1787404333 | 18.89° C | 68% | 1020.1 hPa | 0 mm | - | 211 W/m² | - |
| 1787404029 | 19.44° C | 66% | 1020.1 hPa | 0 mm | - | 243 W/m² | - |
| 1787403730 | 19.44° C | 69% | 1020 hPa | 0 mm | - | 645 W/m² | - |
| 1787403428 | 18.89° C | 70% | 1020 hPa | 0 mm | - | 346 W/m² | - |
| 1787403132 | 19.44° C | 69% | 1020 hPa | 0 mm | - | 320 W/m² | - |
| 1787402826 | 19.44° C | 69% | 1020 hPa | 0 mm | - | 378 W/m² | - |
| 1787402529 | 19.44° C | 64% | 1019.9 hPa | 0 mm | - | 323 W/m² | - |
| 1787402229 | 19.44° C | 64% | 1019.8 hPa | 0 mm | - | 461 W/m² | - |
| 1787401964 | 20° C | 66% | 1019.8 hPa | 0 mm | - | 290 W/m² | - |
| 1787401754 | 20° C | 65% | 1019.8 hPa | 0 mm | - | 438 W/m² | - |
| 1787401327 | 20° C | 64% | 1019.7 hPa | 0 mm | - | 406 W/m² | - |
* Rain latest hour (hover to see other rain measurements)
** Current wind speed in m/s (hover to see current wind gust speed)